Temperature
8 8 8 8 8 8 7 7 7 6 6 6 6 6 6 6 6 5 5 5 4 4 3 3 3 2 2 2 2 2 2 2 2 1 2 2 2 2
7 7 7 7 7 7 7 6 6 6 5 5 5 5 5 5 5 5 4 4 3 3 3 2 2 2 2 2 1 1 1 1 1 1 1 1 1 0
7 7 7 6 6 6 6 6 5 5 5 5 5 4 4 4 4 4 3 3 3 2 2 2 1 1 1 1 1 0 0 0 0 0 0 0 -0 -0
6 6 5 5 5 5 5 5 5 5 4 4 4 4 3 3 3 3 2 2 2 1 1 1 1 1 0 0 0 -0 -0 -0 -0 -0 -0 -0 -1 -1
5 5 5 4 4 4 4 4 4 4 3 3 3 3 3 2 2 2 1 1 1 1 1 1 0 0 -0 -0 -0 -1 -1 -1 -1 -1 -1 -1 -1 -2
4 4 3 3 3 3 3 3 3 2 2 2 2 2 2 1 1 1 1 1 0 0 0 -0 -0 -0 -0 -1 -1 -1 -1 -1 -1 -1 -2 -2 -2 -2
2 2 2 2 2 2 2 1 1 1 1 1 1 1 1 0 0 -0 -0 -0 -1 -1 -1 -1 -1 -1 -1 -1 -1 -1 -2 -2 -2 -2 -2 -2 -3 -3
1 1 1 1 1 0 0 0 1 0 0 0 -0 -0 -1 -1 -1 -1 -2 -2 -2 -2 -2 -2 -2 -2 -2 -2 -2 -2 -2 -2 -3 -3 -3 -3 -3 -3
1 0 0 0 -0 -0 -0 -0 -0 -1 -1 -1 -1 -2 -2 -2 -3 -3 -3 -3 -3 -4 -3 -2 -3 -3 -3 -3 -3 -3 -3 -3 -3 -3 -3 -4 -3 -4
0 -0 -0 -1 -1 -1 -1 -1 -1 -2 -2 -2 -3 -3 -3 -4 -4 -4 -4 -4 -4 -5 -5 -4 -3 -3 -3 -3 -3 -3 -3 -3 -4 -4 -4 -4 -4 -4
-0 -1 -1 -1 -2 -2 -2 -2 -3 -3 -3 -4 -4 -4 -4 -5 -5 -5 -5 -5 -5 -5 -5 -5 -4 -4 -4 -3 -4 -4 -4 -4 -4 -5 -5 -4 -4 -4
-1 -2 -2 -2 -3 -3 -3 -3 -4 -4 -4 -4 -5 -5 -5 -5 -5 -6 -6 -6 -6 -6 -6 -6 -6 -6 -5 -4 -4 -5 -5 -5 -5 -5 -5 -5 -4 -4
-2 -2 -3 -3 -3 -4 -4 -4 -5 -5 -5 -5 -5 -5 -6 -6 -6 -6 -6 -6 -6 -7 -7 -7 -7 -7 -7 -6 -4 -4 -4 -5 -5 -5 -5 -5 -4 -4
-2 -3 -3 -4 -4 -4 -5 -5 -5 -5 -6 -6 -6 -6 -6 -6 -6 -6 -7 -7 -7 -7 -7 -7 -7 -7 -7 -7 -5 -4 -4 -5 -5 -5 -5 -5 -5 -5
-3 -3 -4 -4 -4 -5 -5 -5 -5 -6 -6 -6 -6 -6 -6 -6 -7 -7 -7 -7 -7 -7 -7 -7 -7 -7 -8 -8 -7 -6 -5 -4 -5 -5 -5 -6 -6 -5
-3 -3 -4 -4 -5 -5 -5 -5 -6 -6 -6 -6 -6 -7 -7 -7 -7 -7 -7 -7 -6 -6 -7 -7 -8 -8 -8 -8 -7 -6 -6 -6 -5 -6 -6 -6 -6 -6
-3 -3 -4 -4 -5 -5 -5 -6 -6 -6 -6 -7 -7 -7 -7 -7 -7 -7 -7 -7 -7 -6 -6 -7 -8 -8 -8 -8 -8 -7 -7 -6 -6 -7 -7 -6 -6 -6
-3 -3 -4 -4 -5 -5 -5 -6 -6 -6 -7 -7 -7 -7 -7 -7 -7 -7 -8 -8 -7 -7 -7 -7 -8 -8 -8 -7 -7 -7 -7 -7 -7 -7 -8 -7 -6 -5
-3 -4 -4 -4 -5 -5 -5 -6 -6 -6 -7 -7 -7 -7 -7 -7 -8 -8 -8 -8 -8 -8 -8 -8 -8 -9 -9 -9 -8 -8 -8 -7 -7 -7 -8 -8 -7 -6
-3 -4 -4 -4 -5 -5 -5 -6 -6 -6 -7 -7 -7 -7 -8 -8 -8 -8 -8 -8 -8 -8 -8 -8 -8 -9 -10 -10 -9 -8 -8 -8 -8 -8 -8 -8 -8 -7
-4 -4 -4 -4 -5 -5 -5 -6 -6 -6 -7 -7 -7 -8 -8 -8 -8 -8 -8 -8 -9 -9 -8 -8 -8 -9 -10 -10 -10 -8 -7 -8 -8 -9 -8 -9 -8 -8
-3 -4 -4 -4 -5 -5 -5 -6 -6 -6 -7 -7 -7 -8 -8 -8 -8 -8 -9 -9 -9 -9 -9 -8 -9 -9 -9 -10 -9 -8 -8 -7 -8 -8 -8 -9 -10 -9
-4 -4 -4 -4 -5 -5 -5 -6 -6 -6 -7 -7 -7 -8 -8 -8 -8 -9 -9 -9 -9 -9 -9 -9 -9 -9 -9 -10 -10 -9 -9 -8 -8 -8 -7 -7 -8 -8
Wind_Speed
2 2 1 2 1 1 1 2 3 4 3 1 1 3 5 5 5 6 9 13 16 18 17 15 13 10 9 9 8 8 9 10 11 12 12 12 13 14
4 5 5 3 3 3 2 1 1 2 3 1 1 2 4 4 4 3 3 6 9 11 11 10 8 7 6 7 8 9 10 11 12 13 13 14 14 14
7 7 7 6 5 5 4 3 3 1 1 1 2 2 3 3 4 5 5 3 2 3 4 5 6 6 7 8 9 10 11 12 12 13 13 13 14 14
8 8 7 6 7 6 5 5 3 3 1 0 1 2 3 3 3 3 5 5 4 3 3 3 3 5 7 8 9 10 11 11 12 12 13 14 15 15
8 8 7 7 8 6 6 5 4 4 3 2 2 2 2 3 3 3 4 4 4 5 4 4 5 5 6 7 8 10 10 11 12 13 14 15 15 16
9 8 8 7 6 6 6 5 5 5 4 3 2 2 2 2 3 3 3 3 3 4 5 5 5 6 6 8 9 10 11 12 14 15 15 16 16 16
8 8 8 9 9 7 6 5 5 4 4 3 3 2 2 3 2 2 2 2 2 3 3 3 4 5 8 9 10 12 13 15 15 16 16 17 17 17
7 7 7 9 11 12 12 10 8 5 4 3 2 2 2 2 2 2 2 2 2 2 2 3 2 4 7 10 11 12 14 15 15 16 16 16 16 16
6 6 5 6 8 6 9 11 11 11 8 3 2 2 1 1 1 1 1 0 2 2 2 3 2 4 7 9 11 13 13 14 14 14 14 15 16 16
5 5 4 4 4 5 5 6 6 6 6 4 2 0 1 1 1 1 1 1 3 3 1 3 3 3 4 9 11 11 10 10 11 12 13 13 14 15
4 4 3 3 5 6 5 4 4 4 6 6 5 4 5 4 1 2 1 1 3 2 1 2 3 3 4 4 7 6 6 7 8 10 12 13 14 14
3 4 5 4 5 4 3 2 2 2 2 3 5 6 6 6 4 1 3 2 2 3 2 1 2 3 4 3 3 6 8 10 12 12 13 14 15 12
1 2 3 6 5 5 3 1 2 0 1 1 2 3 3 3 3 2 1 4 4 5 3 1 2 1 3 4 4 4 6 7 9 11 14 17 17 15
1 2 3 6 5 5 3 3 3 3 1 1 2 2 2 3 3 4 4 5 7 9 8 4 3 4 3 4 6 4 4 7 9 9 12 15 15 15
2 4 4 5 4 3 4 4 3 1 1 1 2 2 2 3 3 4 4 5 8 11 12 12 7 5 5 6 6 6 5 5 6 6 6 6 6 7
2 3 4 4 3 3 3 3 2 2 2 2 3 3 3 2 3 2 3 3 4 4 5 9 11 7 6 8 10 11 8 6 4 4 6 7 10 12
2 1 0 1 2 2 2 2 2 2 2 2 3 3 4 3 3 3 3 3 4 5 5 3 7 10 9 8 9 12 11 10 10 8 7 10 9 9
2 2 2 3 3 3 3 3 3 3 3 3 3 3 4 4 5 4 4 5 6 7 7 5 4 4 4 7 13 12 10 9 8 7 7 9 12 9
3 3 4 4 4 4 4 4 4 4 3 4 4 5 5 5 5 5 5 5 7 7 7 6 4 4 6 8 6 11 9 7 7 8 8 9 12 11
3 4 5 5 5 5 5 5 5 4 4 4 5 5 5 5 5 6 6 7 7 8 8 6 6 7 8 8 7 6 12 11 10 11 10 10 12 16
5 5 5 5 5 5 5 5 5 5 5 5 5 6 6 5 6 7 7 11 10 8 10 9 7 11 8 6 9 10 8 15 16 11 9 10 13 12
6 6 6 6 6 6 5 5 5 6 6 6 6 6 6 6 8 9 8 8 9 9 11 10 8 6 6 9 13 14 14 11 15 23 24 21 11 7
6 6 6 6 6 5 5 6 7 7 7 7 7 7 6 7 7 8 9 9 10 10 11 11 9 8 10 11 13 14 16 15 12 11 13 19 26 31
Wind_Direction
20 29 34 18 14 325 254 226 239 267 268 255 321 357 344 326 301 269 251 246 240 234 229 226 225 222 220 223 236 249 259 267 271 272 274 273 273 275
42 54 50 33 37 32 24 5 251 243 258 86 28 6 350 347 343 330 280 259 247 238 231 223 213 209 219 231 244 254 259 263 268 270 270 271 272 272
49 58 53 44 48 40 39 38 32 17 268 57 48 11 5 6 16 34 38 26 0 274 243 226 219 223 232 248 254 258 260 263 266 268 271 273 275 275
53 57 51 51 51 43 47 46 38 28 58 50 33 22 24 18 22 33 45 45 34 359 314 282 264 258 258 256 259 260 261 265 267 269 271 272 273 273
59 60 54 57 56 47 48 45 34 34 41 80 50 34 32 29 34 37 44 35 32 15 357 337 314 292 279 270 267 267 268 269 270 270 269 269 270 271
60 60 58 61 65 58 51 42 42 46 48 64 61 43 35 23 40 36 33 28 16 9 356 342 330 318 303 287 281 281 279 276 273 271 269 268 268 268
58 52 54 61 68 72 68 54 53 53 51 53 51 43 30 23 26 18 25 7 9 14 352 341 329 312 300 294 287 281 276 272 269 267 267 267 266 266
59 47 48 49 53 57 60 58 59 61 55 51 41 42 21 14 16 25 26 18 341 2 352 300 285 279 281 282 279 275 272 269 267 266 265 265 265 266
58 49 48 47 53 47 51 50 45 51 61 89 72 45 11 351 34 25 20 322 271 297 340 292 298 283 282 284 288 283 276 271 267 266 265 266 267 267
57 57 53 28 51 68 59 47 35 33 47 61 88 353 273 256 205 185 222 304 292 275 212 277 303 286 290 295 299 291 280 274 273 273 272 273 274 273
36 37 44 18 32 57 68 48 27 7 23 35 31 17 1 346 328 119 73 15 316 297 250 254 303 304 296 297 312 318 317 311 302 293 286 282 278 278
23 11 13 12 17 44 96 67 6 330 348 1 6 5 6 3 17 107 169 174 233 285 281 242 294 332 318 295 289 299 301 301 300 294 290 288 286 286
28 350 334 349 355 359 28 182 284 295 95 357 341 342 352 1 10 9 184 175 193 240 258 193 247 259 257 294 296 267 267 278 286 284 286 288 284 277
243 272 294 326 342 348 354 325 350 65 73 345 331 327 328 320 314 315 297 255 234 239 252 223 221 214 240 276 282 284 266 262 266 273 276 283 283 275
238 279 307 330 349 350 332 342 26 47 330 300 296 286 269 265 281 298 295 282 271 264 258 241 222 230 233 256 270 281 296 280 256 259 267 264 262 264
281 299 320 337 351 332 335 355 352 280 267 259 270 272 275 273 280 285 294 308 303 289 263 248 235 222 246 254 266 275 270 271 277 256 265 270 266 258
235 191 272 310 313 309 302 296 292 300 301 277 272 281 285 283 282 278 271 279 274 285 291 271 253 241 238 250 264 264 266 265 265 269 271 277 272 257
230 196 244 253 260 268 275 280 275 269 263 259 265 266 274 278 280 274 263 264 271 276 278 281 287 293 276 258 239 254 260 263 265 259 253 270 278 268
224 224 240 247 251 254 253 250 253 256 252 254 256 258 261 266 269 272 270 268 269 271 272 266 254 252 276 286 266 233 241 259 266 268 260 259 270 275
216 231 239 242 244 246 248 249 254 260 254 252 253 254 252 257 264 264 263 263 270 274 275 259 240 234 243 264 272 263 249 254 265 269 271 270 270 276
235 235 236 238 240 242 245 246 247 253 255 252 253 253 251 251 259 261 264 272 274 272 273 270 253 259 258 258 268 269 254 251 252 257 264 274 280 280
236 237 238 238 238 240 242 243 247 251 253 250 252 253 250 247 256 262 264 266 266 265 269 274 270 262 247 255 265 276 282 276 265 266 262 257 260 264
235 236 238 238 237 237 238 241 245 251 250 249 252 252 249 252 254 257 260 262 265 269 272 278 276 264 260 259 266 273 278 282 283 278 268 260 258 259
Height
1499 1499 1499 1499 1499 1499 1499 1499 1498 1496 1496 1496 1496 1496 1495 1495 1494 1493 1493 1493 1494 1496 1499 1501 1503 1505 1507 1509 1510 1512 1513 1514 1515 1516 1517 1518 1519 1519
1494 1494 1494 1494 1494 1494 1494 1494 1493 1493 1492 1491 1491 1491 1490 1489 1488 1488 1488 1488 1489 1491 1494 1495 1498 1500 1502 1503 1504 1506 1507 1508 1509 1509 1510 1511 1512 1512
1490 1490 1490 1490 1490 1489 1489 1489 1489 1488 1487 1487 1486 1486 1485 1484 1484 1483 1483 1484 1485 1487 1489 1491 1493 1494 1496 1497 1498 1499 1500 1501 1502 1502 1503 1504 1504 1505
1487 1487 1487 1486 1486 1486 1485 1485 1485 1484 1484 1483 1482 1482 1481 1480 1480 1480 1480 1481 1482 1483 1485 1487 1488 1489 1490 1491 1492 1493 1493 1494 1495 1495 1496 1497 1497 1498
1484 1484 1484 1483 1483 1483 1482 1482 1481 1481 1480 1480 1479 1478 1478 1477 1477 1477 1477 1478 1479 1480 1481 1482 1483 1484 1484 1485 1486 1486 1487 1487 1488 1488 1489 1489 1490 1490
1482 1482 1482 1481 1481 1480 1480 1479 1479 1478 1478 1477 1476 1476 1475 1475 1475 1475 1475 1475 1476 1476 1477 1477 1478 1478 1479 1479 1479 1480 1480 1480 1481 1481 1482 1482 1483 1484
1481 1481 1480 1480 1479 1479 1479 1478 1478 1477 1476 1475 1475 1474 1473 1473 1473 1472 1472 1472 1472 1472 1472 1472 1472 1472 1473 1473 1473 1473 1473 1474 1474 1474 1475 1476 1476 1477
1480 1480 1479 1479 1478 1478 1477 1476 1476 1475 1474 1473 1473 1472 1471 1471 1470 1470 1469 1469 1469 1469 1468 1468 1468 1467 1467 1466 1467 1467 1467 1467 1467 1468 1468 1469 1470 1471
1479 1479 1478 1478 1477 1476 1475 1474 1474 1472 1472 1472 1471 1470 1469 1468 1468 1467 1466 1466 1465 1464 1464 1463 1463 1462 1462 1461 1461 1461 1461 1461 1461 1462 1462 1463 1463 1464
1478 1477 1477 1476 1475 1474 1473 1472 1471 1470 1469 1469 1468 1468 1467 1466 1465 1465 1464 1463 1462 1462 1460 1459 1458 1458 1457 1456 1455 1455 1455 1455 1455 1456 1456 1457 1457 1457
1477 1476 1475 1474 1473 1472 1471 1470 1469 1468 1467 1466 1466 1465 1464 1463 1462 1462 1461 1460 1459 1459 1458 1456 1455 1453 1453 1452 1451 1451 1450 1450 1450 1450 1450 1450 1450 1450
1475 1474 1473 1472 1471 1470 1469 1468 1467 1466 1465 1464 1464 1463 1462 1461 1460 1460 1459 1458 1457 1456 1454 1454 1452 1451 1449 1448 1447 1447 1447 1446 1445 1445 1445 1444 1444 1443
1473 1472 1471 1470 1469 1468 1467 1466 1465 1464 1463 1462 1461 1460 1460 1459 1458 1457 1456 1455 1454 1453 1453 1451 1449 1448 1446 1443 1442 1442 1442 1441 1440 1439 1438 1437 1437 1436
1471 1470 1469 1468 1467 1466 1465 1464 1463 1462 1461 1460 1459 1458 1457 1456 1455 1454 1453 1452 1451 1450 1449 1448 1445 1444 1442 1438 1436 1435 1435 1434 1433 1432 1431 1430 1429 1429
1469 1468 1467 1465 1464 1463 1462 1461 1460 1459 1458 1457 1456 1455 1454 1453 1452 1451 1450 1448 1447 1446 1444 1443 1441 1439 1437 1434 1431 1429 1428 1427 1426 1425 1424 1423 1422 1421
1466 1465 1464 1463 1462 1461 1460 1459 1458 1456 1455 1454 1453 1452 1451 1450 1448 1447 1446 1444 1443 1442 1440 1438 1436 1434 1431 1429 1426 1423 1422 1420 1419 1419 1417 1415 1415 1413
1463 1462 1461 1460 1459 1458 1457 1455 1454 1453 1452 1451 1449 1448 1447 1446 1444 1443 1441 1439 1437 1436 1435 1434 1431 1429 1426 1423 1420 1417 1416 1414 1413 1411 1409 1406 1406 1405
1460 1459 1458 1457 1455 1454 1453 1452 1451 1450 1448 1447 1446 1444 1442 1441 1439 1438 1436 1434 1432 1430 1428 1427 1425 1422 1419 1416 1415 1411 1409 1407 1406 1404 1401 1398 1395 1396
1457 1455 1454 1453 1452 1451 1449 1448 1447 1446 1444 1443 1441 1440 1438 1436 1434 1432 1431 1429 1426 1424 1422 1421 1419 1416 1412 1407 1405 1405 1403 1400 1398 1396 1394 1390 1386 1385
1453 1452 1450 1449 1448 1446 1445 1444 1442 1441 1440 1438 1436 1435 1433 1431 1429 1427 1425 1423 1420 1418 1415 1414 1413 1411 1407 1402 1397 1394 1396 1393 1390 1387 1385 1382 1378 1376
1449 1447 1446 1445 1443 1442 1440 1439 1437 1436 1434 1433 1431 1429 1427 1425 1423 1421 1419 1416 1414 1411 1408 1407 1406 1404 1400 1396 1390 1385 1386 1386 1383 1379 1376 1373 1369 1366
1444 1443 1442 1440 1439 1437 1435 1434 1432 1430 1429 1427 1425 1423 1421 1419 1417 1414 1412 1410 1407 1404 1401 1399 1398 1396 1393 1388 1383 1378 1375 1375 1374 1372 1369 1366 1363 1357
1439 1438 1436 1435 1434 1432 1430 1428 1426 1424 1423 1421 1419 1417 1415 1412 1410 1407 1405 1403 1400 1397 1394 1390 1388 1386 1383 1380 1375 1370 1366 1364 1362 1360 1358 1357 1355 1351